Stations météo

réclame
Mon MeteoGroup
Gilze-Rijen, Pays-Bas (6350): Température de l'air & dewpoint: 17.10.2018 12:00:00 - 23.10.2018 12:00:00 (CEST)Gilze-Rijen, Pays-Bas (6350): Température de l'air 5cm: 17.10.2018 12:00:00 - 23.10.2018 12:00:00 (CEST)Gilze-Rijen, Pays-Bas (6350): Vitesse du vent & gusts: 17.10.2018 12:00:00 - 23.10.2018 12:00:00 (CEST)Gilze-Rijen, Pays-Bas (6350): Direction du vent: 17.10.2018 12:00:00 - 23.10.2018 12:00:00 (CEST)Gilze-Rijen, Pays-Bas (6350): reduced air pressure: 17.10.2018 12:00:00 - 23.10.2018 12:00:00 (CEST)Gilze-Rijen, Pays-Bas (6350): visibility: 17.10.2018 12:00:00 - 23.10.2018 12:00:00 (CEST)Gilze-Rijen, Pays-Bas (6350): Quantités de précipitations: 17.10.2018 12:00:00 - 23.10.2018 12:00:00 (CEST)
Date & Time tt [°C] td [°C] tt 5cm [°C] ff [km/h] ff [knt] fx [km/h] fx [knt] dd ppp [hPa] vv [km] rr [mm]
23.10.2018 12:00:00 13,6 8,6 14,1 24 13 47 25 W 1025,6 10 0,0
23.10.2018 11:00:00 12,2 7,7 12,1 21 11 32 18 W 1026,2 10 0,0
23.10.2018 10:00:00 9,9 7,8 9,6 13 7 22 12 WSW 1027,0 10 0,0
23.10.2018 09:00:00 9,0 7,2 8,2 11 6 25 14 SW 1027,1 10 0,0
23.10.2018 08:00:00 9,0 6,8 8,3 13 7 29 16 WSW 1027,3 10 0,0
23.10.2018 07:00:00 9,3 6,5 8,7 16 9 25 14 WSW 1027,7 10 0,0
23.10.2018 06:00:00 8,2 5,8 7,3 13 7 25 14 SW 1028,2 10 0,0
23.10.2018 05:00:00 7,8 5,6 6,7 13 7 22 12 SW 1030,0 10 0,0
23.10.2018 04:00:00 7,0 5,0 5,9 13 7 18 10 SW 1030,1 10 0,0
23.10.2018 03:00:00 5,0 3,5 3,3 11 6 18 10 SSW 1031,4 10 0,0
23.10.2018 02:00:00 4,5 3,1 0,8 8 4 11 6 SW 1032,9 10 0,0
23.10.2018 01:00:00 4,6 3,4 0,9 9 5 14 8 SW 1033,5 10 0,0
23.10.2018 00:00:00 2,8 2,0 -0,5 8 4 11 6 SW 1034,3 10 0,0
22.10.2018 23:00:00 3,7 2,9 0,2 4 2 7 4 - 1034,6 10 0,0
22.10.2018 22:00:00 4,6 2,2 1,4 4 2 32 18 WSW 1034,8 10 0,0
22.10.2018 21:00:00 7,7 3,9 3,2 8 4 14 8 NW 1034,7 10 0,0
22.10.2018 20:00:00 9,3 4,9 5,7 9 5 18 10 NW 1034,6 10 0,0
22.10.2018 19:00:00 9,0 4,0 5,8 9 5 25 14 NNW 1034,2 10 0,0
22.10.2018 18:00:00 12,9 6,1 12,1 18 10 32 18 N 1033,8 10 0,0
22.10.2018 17:00:00 14,3 6,7 14,2 18 10 32 18 N 1033,8 10 0,0
22.10.2018 16:00:00 14,3 8,1 14,6 16 9 32 18 NNE 1033,2 10 0,0
22.10.2018 15:00:00 16,2 6,0 15,9 18 10 29 16 NNE 1033,2 10 0,0
22.10.2018 14:00:00 15,4 5,3 16,2 21 11 36 19 N 1033,1 10 0,0
22.10.2018 13:00:00 14,8 7,3 16,1 16 9 36 19 N 1033,3 10 0,0
22.10.2018 12:00:00 14,8 7,5 15,1 18 10 32 18 N 1033,1 10 0,0
22.10.2018 11:00:00 13,2 8,4 13,0 24 13 36 19 N 1032,8 10 0,0
22.10.2018 10:00:00 12,6 11,0 12,3 18 10 40 21 N 1032,0 10 0,0
22.10.2018 09:00:00 12,7 11,3 12,2 13 7 25 14 N 1030,8 10 0,0
22.10.2018 08:00:00 12,8 11,6 12,3 16 9 25 14 N 1029,7 10 0,0
22.10.2018 07:00:00 12,7 12,3 12,5 18 10 29 16 N 1028,8 10 0,0
22.10.2018 06:00:00 13,7 12,6 13,3 16 9 32 18 N 1028,2 10 0,0
22.10.2018 05:00:00 13,4 13,1 12,9 11 6 32 18 NNW 1027,6 2,2 0,0
22.10.2018 04:00:00 12,6 11,0 12,3 9 5 14 8 W 1027,2 6 0,0
22.10.2018 03:00:00 12,5 9,4 12,0 5 3 11 6 W 1027,0 8 0,0
22.10.2018 02:00:00 12,0 8,5 10,6 8 4 11 6 WSW 1027,1 9 0,0
22.10.2018 01:00:00 12,6 8,6 11,5 4 2 7 4 SW 1027,1 8 0,0
22.10.2018 00:00:00 12,3 8,7 11,4 4 2 7 4 SW 1027,0 9 0,0
21.10.2018 23:00:00 12,2 8,9 11,3 5 3 7 4 S 1027,0 10 0,0
21.10.2018 22:00:00 10,8 8,4 8,9 2 1 4 2 WNW 1027,0 9 0,0
21.10.2018 21:00:00 10,4 8,2 6,9 2 1 7 4 SSW 1026,7 8 0,0
21.10.2018 20:00:00 13,3 8,5 10,5 5 3 7 4 S 1026,5 10 0,0
21.10.2018 19:00:00 14,0 9,2 12,8 4 2 7 4 - 1026,6 10 0,0
21.10.2018 18:00:00 14,7 9,3 13,6 5 3 7 4 S 1026,7 10 0,0
21.10.2018 17:00:00 15,7 8,3 15,1 5 3 11 6 S 1027,0 10 0,0
21.10.2018 16:00:00 16,7 7,8 17,8 9 5 14 8 SSW 1027,4 10 0,0
21.10.2018 15:00:00 16,6 7,7 18,3 9 5 14 8 SSE 1027,7 10 0,0
21.10.2018 14:00:00 15,8 7,7 17,7 9 5 14 8 S 1028,2 10 0,0
21.10.2018 13:00:00 14,8 7,4 15,8 9 5 14 8 S 1029,1 10 0,0
21.10.2018 12:00:00 13,6 7,5 14,4 9 5 14 8 S 1029,5 10 0,0
21.10.2018 11:00:00 12,0 7,8 12,5 9 5 11 6 S 1029,6 10 0,0
21.10.2018 10:00:00 9,3 7,5 9,2 8 4 11 6 S 1029,6 6 0,0
21.10.2018 09:00:00 4,8 4,7 2,3 2 1 4 2 SSW 1029,5 2,4 0,0
21.10.2018 08:00:00 4,6 4,3 2,9 0 0 4 2 N 1029,3 5 0,0
21.10.2018 07:00:00 4,1 3,9 1,0 4 2 7 4 S 1029,3 2,8 0,0
21.10.2018 06:00:00 3,1 2,8 0,2 2 1 4 2 SE 1029,6 4,0 0,0
21.10.2018 05:00:00 3,4 3,3 0,1 2 1 4 2 SSE 1029,9 5 0,0
21.10.2018 04:00:00 3,8 3,6 0,1 4 2 4 2 S 1030,2 9 0,0
21.10.2018 03:00:00 3,6 3,4 0,7 4 2 7 4 S 1030,4 3,4 0,0
21.10.2018 02:00:00 4,1 3,6 0,6 4 2 7 4 - 1030,6 8 0,0
21.10.2018 01:00:00 4,8 4,6 1,6 2 1 4 2 SW 1031,0 4,7 0,0
21.10.2018 00:00:00 5,3 5,2 1,1 2 1 4 2 SE 1031,2 6 0,0
20.10.2018 23:00:00 5,8 5,4 2,7 2 1 7 4 S 1031,2 5 0,0
20.10.2018 22:00:00 6,6 6,5 3,8 2 1 4 2 NNE 1031,6 10 0,0
20.10.2018 21:00:00 6,7 6,1 2,2 2 1 4 2 W 1031,2 10 0,0
20.10.2018 20:00:00 7,7 6,2 2,9 2 1 4 2 W 1031,3 10 0,0
20.10.2018 19:00:00 9,8 7,4 5,3 2 1 7 4 W 1031,3 10 0,0
20.10.2018 18:00:00 13,4 7,7 12,4 8 4 11 6 NNE 1030,9 10 0,0
20.10.2018 17:00:00 15,1 7,3 15,6 5 3 11 6 NW 1030,9 10 0,0
20.10.2018 16:00:00 15,4 7,5 16,2 8 4 14 8 WNW 1031,3 10 0,0
20.10.2018 15:00:00 15,5 6,6 16,9 5 3 11 6 - 1031,5 10 0,0
20.10.2018 14:00:00 14,9 6,6 16,3 4 2 7 4 - 1031,9 10 0,0
20.10.2018 13:00:00 13,8 6,9 14,9 4 2 11 6 - 1032,4 10 0,0
20.10.2018 12:00:00 12,7 7,2 13,4 5 3 11 6 S 1031,9 10 0,0
20.10.2018 11:00:00 11,1 8,0 11,8 5 3 7 4 S 1031,9 9 0,0
20.10.2018 10:00:00 6,8 6,5 6,5 0 0 4 2 N 1031,6 5 0,0
20.10.2018 09:00:00 3,0 2,6 0,3 2 1 7 4 SW 1030,9 3,4 0,0
20.10.2018 08:00:00 2,4 2,3 -1,2 0 0 4 2 N 1030,5 0,5 0,0
20.10.2018 07:00:00 2,5 2,4 -1,1 2 1 7 4 S 1030,3 4,4 0,0
20.10.2018 06:00:00 2,9 2,7 -1,0 2 1 4 2 S 1029,7 2,8 0,0
20.10.2018 05:00:00 2,6 2,3 0,2 2 1 4 2 W 1029,0 0,3 0,0
20.10.2018 04:00:00 4,0 3,8 -0,7 2 1 4 2 N 1028,7 3,0 0,0
20.10.2018 03:00:00 4,9 4,7 0,5 4 2 7 4 NW 1028,8 6 0,0
20.10.2018 02:00:00 5,4 5,3 2,7 8 4 11 6 NW 1028,4 7 0,0
20.10.2018 01:00:00 7,2 6,2 3,5 5 3 11 6 N 1027,9 10 0,0
20.10.2018 00:00:00 9,7 7,3 8,8 11 6 14 8 N 1027,7 10 0,0
19.10.2018 23:00:00 8,9 7,0 8,1 11 6 22 12 NNE 1027,5 10 0,0
19.10.2018 22:00:00 10,3 7,9 8,8 11 6 14 8 N 1027,1 10 0,0
19.10.2018 21:00:00 8,7 6,7 5,8 11 6 18 10 NNE 1026,6 10 0,0
19.10.2018 20:00:00 10,9 7,6 9,0 11 6 22 12 N 1026,1 10 0,0
19.10.2018 19:00:00 12,5 8,2 10,6 11 6 14 8 NNW 1025,5 10 0,0
19.10.2018 18:00:00 14,0 8,4 13,3 11 6 14 8 NNE 1024,6 10 0,0
19.10.2018 17:00:00 15,7 9,2 16,0 9 5 14 8 N 1024,6 10 0,0
19.10.2018 16:00:00 16,1 9,3 16,7 8 4 18 10 NNE 1024,6 10 0,0
19.10.2018 15:00:00 16,8 9,3 18,3 8 4 18 10 N 1024,8 10 0,0
19.10.2018 14:00:00 15,4 9,5 17,3 8 4 14 8 - 1024,9 10 0,0
19.10.2018 13:00:00 14,9 9,7 16,8 8 4 14 8 - 1025,4 10 0,0
19.10.2018 12:00:00 13,8 9,0 15,2 8 4 14 8 E 1025,6 10 0,0
19.10.2018 11:00:00 11,7 8,3 13,3 9 5 14 8 ENE 1025,5 10 0,0
19.10.2018 10:00:00 9,4 7,2 10,0 9 5 14 8 NE 1025,6 10 0,0
19.10.2018 09:00:00 8,2 6,8 7,8 9 5 11 6 NNE 1025,6 10 0,0
19.10.2018 08:00:00 8,0 6,6 7,7 8 4 11 6 NNE 1025,3 10 0,0
19.10.2018 07:00:00 8,2 6,5 7,7 8 4 11 6 NE 1025,4 10 0,0
19.10.2018 06:00:00 8,4 6,7 8,0 9 5 14 8 NE 1025,2 10 0,0
19.10.2018 05:00:00 8,3 6,8 7,9 11 6 14 8 NE 1025,2 10 0,0
19.10.2018 04:00:00 8,3 6,8 7,5 13 7 14 8 NNE 1025,1 10 0,0
19.10.2018 03:00:00 8,3 6,5 7,2 9 5 18 10 NNE 1025,1 10 0,0
19.10.2018 02:00:00 8,9 6,8 8,1 11 6 18 10 NNE 1025,3 10 0,0
19.10.2018 01:00:00 11,3 7,7 10,7 15 8 25 14 ENE 1025,5 10 0,0
19.10.2018 00:00:00 11,8 7,6 10,8 15 8 25 14 ENE 1025,5 10 0,0
18.10.2018 23:00:00 13,0 8,0 12,6 16 9 22 12 NE 1025,6 10 0,0
18.10.2018 22:00:00 13,1 9,1 12,7 11 6 18 10 NNE 1025,7 10 0,0
18.10.2018 21:00:00 13,1 9,0 12,8 13 7 22 12 N 1025,4 10 0,0
18.10.2018 20:00:00 13,5 8,8 13,2 13 7 18 10 NNE 1025,1 10 0,0
18.10.2018 19:00:00 13,3 8,6 11,9 11 6 25 14 N 1024,8 10 0,0
18.10.2018 18:00:00 15,1 9,2 14,9 13 7 22 12 NNE 1024,6 10 0,0
18.10.2018 17:00:00 15,7 8,9 15,7 13 7 25 14 NNE 1024,6 10 0,0
18.10.2018 16:00:00 15,9 9,3 15,9 18 10 29 16 N 1024,8 10 0,0
18.10.2018 15:00:00 16,0 9,5 16,2 16 9 43 23 NNE 1024,7 10 0,0
18.10.2018 14:00:00 15,8 10,3 16,1 18 10 29 16 NNE 1024,7 10 0,0
18.10.2018 13:00:00 15,9 10,1 17,1 18 10 32 18 NNE 1025,1 10 0,0
18.10.2018 12:00:00 15,5 11,4 16,2 21 11 29 16 NNE 1025,2 10 0,0
18.10.2018 11:00:00 14,0 12,2 13,8 15 8 22 12 N 1025,0 10 0,0
18.10.2018 10:00:00 13,7 12,4 13,8 9 5 14 8 N 1024,5 10 0,0
18.10.2018 09:00:00 12,8 12,2 12,3 8 4 11 6 N 1024,2 5 0,0
18.10.2018 08:00:00 11,6 11,3 9,9 4 2 7 4 NNE 1023,8 5 0,0
18.10.2018 07:00:00 11,3 11,1 10,9 5 3 14 8 NE 1023,4 6 0,0
18.10.2018 06:00:00 8,5 8,3 4,6 4 2 11 6 N 1023,2 1,4 0,0
18.10.2018 05:00:00 10,2 10,1 7,3 5 3 11 6 N 1022,9 2,8 0,0
18.10.2018 04:00:00 10,2 9,9 7,8 5 3 14 8 NNE 1022,8 3,3 0,0
18.10.2018 03:00:00 12,3 11,2 11,2 9 5 14 8 N 1022,9 5 0,0
18.10.2018 02:00:00 11,6 11,3 8,5 5 3 11 6 N 1022,7 6 0,0
18.10.2018 01:00:00 10,7 10,4 9,2 2 1 7 4 - 1022,3 6 0,0
18.10.2018 00:00:00 10,9 10,4 7,6 5 3 7 4 NNW 1022,2 2,8 0,0
17.10.2018 23:00:00 11,6 10,8 8,3 5 3 11 6 N 1021,9 10 0,0
17.10.2018 22:00:00 13,1 11,3 10,9 8 4 14 8 NNW 1021,6 10 0,0
17.10.2018 21:00:00 12,4 10,8 9,1 8 4 11 6 NW 1021,1 10 0,0
17.10.2018 20:00:00 13,7 11,5 10,5 8 4 14 8 NW 1020,7 10 0,0
17.10.2018 19:00:00 16,1 12,7 15,1 11 6 18 10 NW 1020,1 10 0,0
17.10.2018 18:00:00 17,3 12,8 16,3 9 5 14 8 NW 1019,5 10 0,0
17.10.2018 17:00:00 18,7 13,3 18,8 11 6 18 10 NW 1019,5 10 0,0
17.10.2018 16:00:00 19,0 13,3 19,4 5 3 14 8 - 1019,2 10 0,0
17.10.2018 15:00:00 19,0 13,4 19,5 5 3 14 8 N 1019,2 10 0,0
17.10.2018 14:00:00 19,3 14,1 20,6 5 3 11 6 - 1019,2 10 0,0
17.10.2018 13:00:00 18,7 14,3 20,5 4 2 7 4 - 1019,5 10 0,0
17.10.2018 12:00:00 15,7 14,8 15,4 4 2 7 4 - 1019,8 2,5 0,0

tt = Température de l'air
td = dewpoint
tt 5cm = Température de l'air 5cm
ff = Vitesse du vent
fx = gusts
dd = Direction du vent
ppp = reduced air pressure
vv = visibility
rr = Quantités de précipitations

stations d'obs. à proximité